This is the latest recevied weather packets stored in our database for station/object KJ5BMY-13. If no packets are shown the sender has not sent any weather packets the latest 10 day(s).
| Time | Temp. | Humidity | Pressure | Rain* | Wind** | Luminosity | Snow |
|---|---|---|---|---|---|---|---|
| 1777736717 | 24.44° C | 38% | 1024.2 hPa | 0 mm | - | - | - |
| 1777736078 | 23.89° C | 41% | 1024.3 hPa | 0 mm | - | - | - |
| 1777735774 | 23.33° C | 38% | 1024.1 hPa | 0 mm | - | - | - |
| 1777735472 | 22.78° C | 38% | 1024.2 hPa | 0 mm | - | - | - |
| 1777735170 | 22.78° C | 41% | 1024.1 hPa | 0 mm | - | - | - |
| 1777734866 | 23.33° C | 40% | 1024.1 hPa | 0 mm | - | - | - |
| 1777734564 | 23.33° C | 41% | 1024 hPa | 0 mm | - | - | - |
| 1777734260 | 22.78° C | 41% | 1024 hPa | 0 mm | - | - | - |
| 1777733956 | 23.33° C | 41% | 1024.1 hPa | 0 mm | - | - | - |
| 1777733653 | 22.22° C | 44% | 1023.9 hPa | 0 mm | - | - | - |
| 1777733349 | 22.22° C | 42% | 1024 hPa | 0 mm | - | - | - |
| 1777732743 | 21.67° C | 45% | 1023.9 hPa | 0 mm | - | - | - |
| 1777732440 | 20.56° C | 48% | 1023.9 hPa | 0 mm | - | - | - |
| 1777732137 | 20.56° C | 46% | 1024 hPa | 0 mm | - | - | - |
| 1777731834 | 20.56° C | 47% | 1024 hPa | 0 mm | - | - | - |
| 1777731530 | 20° C | 46% | 1023.8 hPa | 0 mm | - | - | - |
| 1777731229 | 20° C | 50% | 1023.8 hPa | 0 mm | - | - | - |
| 1777730926 | 19.44° C | 53% | 1023.6 hPa | 0 mm | - | - | - |
| 1777730624 | 19.44° C | 52% | 1023.7 hPa | 0 mm | - | - | - |
| 1777730320 | 18.89° C | 54% | 1023.7 hPa | 0 mm | - | - | - |
| 1777730017 | 18.33° C | 55% | 1023.8 hPa | 0 mm | - | - | - |
| 1777729713 | 17.78° C | 59% | 1023.6 hPa | 0 mm | - | - | - |
| 1777729410 | 17.22° C | 60% | 1023.5 hPa | 0 mm | - | - | - |
| 1777729106 | 16.67° C | 62% | 1023.4 hPa | 0 mm | - | - | - |
| 1777728803 | 16.11° C | 63% | 1023.6 hPa | 0 mm | - | - | - |
* Rain latest hour (hover to see other rain measurements)
** Current wind speed in m/s (hover to see current wind gust speed)